Wind_Speed
46 44 42 40 39 38 36 35 35 35 34 34 33 33 32 31 31 30 29 29 28 27 27 27 26 26 27 27 27 28 28 28 28 29 29 29 29 29 29 29 29 29 29
49 47 45 43 42 40 39 37 36 36 36 35 34 34 34 34 33 31 31 30 30 29 28 28 28 28 28 29 29 30 30 31 31 31 31 31 31 31 31 31 31 31 31
51 50 48 46 45 44 42 41 39 38 38 38 37 36 35 35 35 34 33 32 32 31 31 30 30 30 30 30 31 31 32 33 33 33 33 33 33 33 33 33 33 33 32
54 53 51 49 47 46 45 44 42 40 40 40 39 38 37 36 36 35 35 34 33 33 33 33 33 32 32 33 33 33 34 34 35 35 35 35 35 35 35 35 35 35 34
57 56 54 52 51 49 47 46 45 43 42 41 41 40 39 38 37 37 36 35 35 35 35 35 35 34 35 35 36 36 36 36 36 37 37 37 37 37 37 37 37 36 36
58 57 56 54 53 52 50 49 48 47 45 44 43 42 42 40 39 39 38 37 37 37 37 37 37 37 37 38 38 38 38 38 38 38 39 39 39 39 39 39 38 38 38
58 58 57 56 55 53 51 50 50 49 47 47 46 45 44 43 42 40 40 39 38 38 38 39 39 39 39 40 40 40 40 40 40 40 40 40 40 41 41 41 41 40 40
58 57 57 56 56 54 52 52 51 50 49 48 48 48 47 45 43 41 41 41 40 40 40 40 41 41 41 41 41 42 42 41 41 41 42 42 43 43 44 44 44 43 43
56 56 56 56 56 55 53 53 52 50 49 49 49 49 49 47 45 44 43 43 42 42 43 42 42 42 42 43 43 43 43 43 43 44 44 45 46 46 46 46 46 46 45
55 56 56 56 56 56 54 53 52 52 51 51 51 50 50 50 49 47 45 45 45 45 45 46 45 45 45 45 45 44 45 45 45 46 47 48 49 49 50 49 48 47 46
53 55 55 55 54 54 53 52 50 51 52 52 53 53 52 52 52 51 49 48 48 47 46 47 47 46 46 46 46 46 46 47 48 49 49 49 50 51 51 50 49 48 47
49 51 52 54 52 52 53 53 50 50 51 52 53 53 53 54 54 54 53 50 50 49 48 48 47 47 48 47 47 47 47 48 49 50 51 51 51 51 50 49 49 49 49
45 47 49 50 50 50 50 51 50 49 49 51 51 51 52 53 54 55 56 53 52 51 50 49 48 48 48 48 48 49 49 49 49 50 52 52 53 52 51 51 51 50 50
40 40 42 46 47 48 48 49 50 50 50 50 51 50 52 53 53 54 55 56 54 52 50 50 50 50 49 49 48 49 49 50 50 51 52 53 53 52 52 51 51 51 50
35 36 38 41 42 44 44 46 48 49 50 50 51 52 52 53 54 54 54 54 55 54 52 51 50 49 50 50 49 50 51 51 50 50 51 52 52 51 51 51 51 50 49
32 32 35 38 40 41 42 43 45 47 48 48 50 51 53 54 54 54 54 54 54 54 53 52 51 50 50 50 50 51 51 51 51 51 51 51 50 50 50 50 49 49 49
30 31 32 36 38 40 41 43 44 46 47 48 49 51 53 52 53 53 53 53 54 54 54 52 52 52 52 52 52 52 52 52 52 52 51 51 52 52 52 51 50 49 48
27 29 32 35 36 38 39 41 43 44 46 48 49 50 50 51 51 52 53 53 54 54 55 53 52 52 52 52 52 52 52 52 53 53 52 53 53 53 52 52 51 50 48
22 24 27 31 34 35 37 39 40 42 44 47 48 48 49 49 49 50 52 53 54 55 55 54 53 52 51 51 53 53 53 53 54 54 53 54 54 53 52 51 51 50 48
22 24 27 29 31 33 35 37 39 41 42 44 45 46 46 47 48 49 50 52 53 54 55 55 54 53 52 52 53 53 53 54 55 55 55 55 55 53 52 51 50 49 48
23 25 27 28 30 31 33 35 38 40 41 42 43 43 44 46 47 49 50 50 51 53 54 54 53 53 53 53 53 54 55 55 55 55 55 55 55 54 51 50 49 48 47
23 24 26 27 28 30 31 34 36 38 38 39 41 42 42 43 45 48 50 50 51 51 52 53 52 53 53 54 54 55 55 55 55 54 55 54 54 53 51 50 49 49 47
23 24 26 27 29 30 32 33 33 35 37 38 39 39 40 42 44 46 47 48 48 49 50 50 52 52 52 52 53 55 55 54 53 53 53 53 53 51 49 49 49 47 46
23 24 26 28 29 30 31 31 32 34 36 37 37 37 38 39 40 42 44 46 47 46 47 48 49 49 49 49 49 49 50 50 50 50 49 50 49 48 48 47 46 46 45
24 24 26 27 28 29 29 30 32 33 34 35 36 37 37 38 39 41 42 43 42 43 43 45 46 45 45 45 45 46 46 46 46 45 45 45 45 45 46 45 45 44 43
24 24 25 26 28 29 29 30 31 32 33 34 36 36 37 38 39 39 39 39 39 40 41 41 42 42 43 42 42 43 44 45 45 44 43 43 42 42 42 41 42 41 41
Wind_Direction
249 250 251 251 252 253 255 256 255 255 257 257 257 259 260 263 264 264 265 266 268 270 271 272 273 274 275 277 280 283 286 288 291 293 295 297 298 300 301 303 303 304 306
248 249 251 251 251 252 253 255 256 256 256 257 258 259 261 262 263 264 264 266 267 269 270 271 273 274 276 277 280 282 285 287 289 291 294 295 296 298 300 302 302 303 304
248 249 250 251 251 251 252 254 255 257 257 258 258 259 260 262 262 263 264 265 266 268 270 272 273 274 275 278 280 282 284 286 288 290 291 293 294 296 298 300 301 302 302
248 249 249 249 251 251 251 252 254 255 257 258 258 259 260 262 262 262 264 265 266 267 269 271 273 273 275 278 279 282 284 285 287 288 289 290 292 294 295 297 298 299 300
247 248 248 249 249 250 251 251 252 254 256 258 258 259 259 261 261 262 263 264 266 267 269 271 273 274 276 278 279 281 283 284 285 286 287 288 290 291 292 294 295 296 297
246 246 246 247 248 249 249 251 253 253 255 257 257 257 258 258 260 261 262 265 267 268 269 271 272 273 276 277 279 281 282 283 285 286 287 287 288 288 290 292 292 293 294
244 245 245 246 247 248 249 250 252 252 253 254 255 256 257 257 259 261 262 265 267 268 270 271 272 273 275 277 278 279 281 282 283 285 286 286 287 287 288 290 291 291 291
243 244 245 245 245 247 249 250 251 252 252 253 254 255 256 256 258 260 262 265 267 269 270 271 273 274 276 277 278 278 279 280 281 282 284 285 286 287 288 289 289 289 290
242 242 243 244 245 246 247 249 251 252 252 253 255 255 255 256 257 260 262 265 267 269 272 273 273 274 275 277 278 277 277 278 280 282 283 284 286 286 287 288 288 288 288
241 242 242 243 244 246 246 248 250 251 252 253 254 254 256 257 258 259 261 264 267 270 272 272 274 275 275 275 276 276 277 278 279 281 283 284 285 286 287 287 287 287 287
242 242 243 242 244 245 245 247 249 250 252 254 254 254 256 257 259 260 261 263 266 269 271 272 273 276 276 275 274 275 276 278 279 281 283 284 285 286 287 286 286 286 286
242 242 242 241 243 244 245 247 248 250 252 253 254 255 255 257 259 260 262 263 266 269 270 271 271 274 275 275 275 276 278 279 280 281 283 284 285 286 286 286 286 286 286
240 242 243 241 241 242 243 246 248 249 251 253 254 256 257 258 259 261 262 264 266 268 270 270 272 273 274 275 276 277 277 280 281 282 283 284 285 285 284 285 284 284 284
238 239 239 240 240 241 244 246 248 249 251 253 255 257 258 259 261 262 264 265 268 269 271 271 272 274 274 275 275 276 277 279 281 282 283 284 285 285 285 284 283 282 281
238 237 237 238 240 243 245 247 249 251 252 254 256 257 259 260 261 263 265 267 269 269 271 272 274 275 275 274 275 276 277 280 281 283 284 285 285 286 286 285 284 283 281
238 239 239 240 242 246 248 250 252 253 254 257 258 259 260 261 262 263 264 267 269 270 272 272 273 275 274 274 275 277 279 280 280 281 283 283 284 286 287 287 285 283 281
241 243 244 246 249 251 253 253 255 257 258 259 261 263 263 263 263 265 266 268 269 271 272 274 274 274 273 273 274 276 279 280 280 280 281 282 283 284 285 284 284 284 281
245 245 246 249 252 255 257 257 258 260 261 261 263 264 263 263 264 266 266 268 270 271 272 273 274 275 274 273 273 275 277 279 279 279 280 281 283 283 283 282 282 283 283
248 248 252 254 255 257 259 260 261 263 263 262 264 264 265 265 266 267 267 269 270 271 272 274 275 275 275 275 275 276 277 278 278 279 280 280 281 281 281 281 281 280 281
253 255 256 258 260 262 264 265 264 265 266 266 267 267 266 266 267 268 270 271 272 272 273 273 274 274 274 275 276 277 277 277 278 278 280 280 279 278 279 280 280 278 278
262 262 259 261 265 267 269 269 269 268 270 270 270 269 270 269 269 271 272 272 273 274 274 273 274 275 275 274 276 277 278 277 277 277 279 278 278 278 277 278 277 277 276
271 267 265 266 268 271 274 275 273 273 274 274 272 271 272 272 273 273 273 274 275 276 276 274 274 275 275 275 277 278 278 278 277 278 277 278 279 278 276 275 276 275 274
279 276 273 273 274 276 278 279 278 277 276 276 275 273 273 274 276 277 277 276 277 277 278 278 277 276 277 277 278 278 278 279 278 279 278 278 277 276 275 275 275 274 274
287 285 280 278 279 281 281 282 281 281 279 279 278 277 276 277 278 280 279 278 277 276 278 279 279 279 279 280 280 278 278 278 279 279 278 277 276 274 273 275 275 274 273
293 290 288 285 285 286 285 283 283 283 282 282 281 280 278 279 280 281 281 281 278 277 278 280 280 279 281 282 282 280 279 279 279 279 278 277 276 275 274 274 274 274 273
297 293 291 289 289 289 288 286 285 284 284 284 284 282 281 282 282 282 282 282 279 278 279 281 282 281 282 284 284 283 282 281 280 278 277 276 277 277 275 273 273 272 272
Height
5805 5808 5811 5814 5816 5819 5821 5823 5825 5827 5828 5829 5831 5833 5834 5835 5835 5836 5837 5837 5837 5838 5838 5837 5837 5837 5837 5836 5836 5835 5834 5833 5832 5831 5830 5828 5827 5825 5824 5822 5820 5818 5816
5795 5799 5802 5806 5809 5811 5813 5816 5818 5820 5821 5823 5824 5826 5827 5828 5829 5830 5830 5831 5831 5831 5832 5832 5831 5831 5831 5830 5829 5829 5828 5827 5826 5825 5823 5822 5821 5819 5818 5816 5814 5812 5810
5786 5789 5792 5796 5800 5802 5805 5808 5810 5812 5814 5815 5817 5818 5820 5821 5822 5823 5823 5824 5824 5825 5825 5825 5825 5825 5824 5823 5823 5822 5821 5820 5819 5818 5817 5815 5814 5812 5811 5809 5807 5806 5804
5775 5779 5783 5787 5790 5793 5796 5799 5802 5804 5805 5807 5809 5811 5812 5813 5815 5816 5816 5817 5817 5818 5818 5818 5818 5818 5817 5817 5816 5815 5814 5813 5812 5810 5809 5808 5806 5805 5803 5802 5800 5798 5796
5763 5767 5772 5776 5780 5783 5787 5790 5793 5795 5797 5799 5801 5803 5804 5805 5807 5808 5809 5810 5810 5810 5811 5810 5810 5810 5810 5809 5808 5807 5806 5805 5804 5802 5801 5800 5798 5797 5795 5793 5792 5790 5788
5750 5755 5760 5764 5769 5772 5776 5779 5782 5785 5788 5790 5792 5794 5795 5796 5798 5799 5801 5802 5802 5802 5802 5802 5802 5802 5801 5801 5800 5798 5797 5796 5795 5793 5792 5790 5789 5787 5785 5784 5783 5781 5779
5738 5742 5747 5752 5757 5761 5764 5768 5771 5775 5778 5780 5782 5784 5786 5787 5789 5790 5792 5793 5793 5794 5794 5794 5794 5793 5793 5792 5791 5790 5788 5787 5785 5784 5782 5780 5779 5777 5775 5774 5772 5771 5770
5725 5730 5735 5740 5745 5749 5753 5757 5760 5764 5767 5769 5771 5773 5776 5778 5779 5781 5782 5783 5784 5784 5785 5785 5784 5784 5783 5782 5781 5780 5778 5777 5775 5773 5772 5770 5768 5766 5765 5763 5762 5760 5759
5712 5717 5722 5727 5732 5737 5742 5746 5749 5752 5755 5758 5760 5763 5765 5767 5770 5771 5772 5773 5774 5775 5775 5774 5774 5773 5772 5771 5770 5769 5767 5766 5764 5762 5761 5759 5757 5755 5753 5751 5750 5748 5747
5698 5704 5709 5714 5719 5724 5729 5734 5737 5741 5744 5746 5749 5751 5754 5756 5758 5760 5762 5762 5763 5764 5764 5764 5763 5762 5761 5760 5759 5757 5756 5754 5752 5751 5748 5746 5744 5742 5740 5738 5736 5735 5734
5686 5691 5696 5701 5707 5712 5717 5721 5724 5728 5731 5734 5737 5740 5741 5743 5746 5748 5750 5752 5752 5752 5752 5752 5751 5751 5749 5748 5746 5745 5744 5742 5740 5738 5735 5733 5730 5728 5726 5724 5722 5721 5721
5673 5678 5683 5689 5694 5699 5704 5708 5712 5715 5719 5721 5724 5727 5729 5731 5733 5735 5738 5740 5741 5741 5740 5739 5738 5738 5737 5735 5734 5733 5731 5729 5727 5725 5722 5719 5717 5714 5712 5710 5708 5707 5706
5663 5667 5672 5677 5683 5688 5692 5696 5699 5703 5706 5709 5712 5714 5716 5719 5721 5722 5724 5726 5728 5729 5728 5727 5726 5725 5724 5723 5721 5719 5718 5716 5714 5711 5708 5705 5703 5700 5698 5696 5694 5693 5691
5653 5658 5662 5667 5672 5677 5681 5684 5688 5691 5694 5697 5699 5701 5704 5706 5708 5709 5711 5712 5713 5715 5715 5714 5713 5712 5711 5710 5708 5706 5704 5702 5700 5697 5694 5691 5688 5686 5684 5682 5680 5679 5677
5644 5648 5653 5658 5662 5666 5670 5673 5676 5679 5682 5684 5686 5689 5691 5693 5694 5696 5696 5697 5698 5699 5701 5702 5700 5699 5697 5696 5694 5692 5690 5688 5686 5683 5681 5678 5675 5672 5670 5668 5666 5665 5663
5637 5640 5644 5649 5653 5656 5659 5662 5665 5668 5670 5672 5674 5676 5678 5680 5681 5682 5682 5683 5682 5683 5684 5687 5686 5685 5683 5681 5680 5677 5676 5674 5671 5669 5667 5665 5662 5659 5656 5654 5652 5651 5649
5629 5633 5637 5640 5644 5647 5650 5652 5654 5656 5658 5659 5661 5663 5665 5666 5668 5668 5669 5669 5668 5668 5668 5670 5670 5669 5667 5666 5665 5663 5661 5659 5657 5655 5654 5651 5648 5646 5643 5640 5638 5636 5635
5622 5626 5629 5632 5635 5637 5639 5641 5643 5644 5646 5647 5649 5650 5651 5652 5653 5654 5654 5654 5653 5653 5652 5653 5654 5653 5652 5650 5649 5648 5646 5644 5643 5641 5639 5637 5634 5631 5629 5626 5624 5622 5620
5616 5619 5622 5624 5626 5627 5629 5630 5631 5632 5633 5634 5635 5636 5637 5638 5639 5639 5639 5639 5638 5637 5636 5636 5637 5636 5636 5635 5633 5632 5631 5629 5627 5625 5624 5621 5619 5616 5613 5611 5609 5607 5606
5611 5613 5614 5616 5617 5618 5619 5619 5619 5620 5620 5621 5621 5622 5622 5623 5624 5624 5624 5623 5623 5622 5621 5620 5620 5620 5620 5619 5617 5616 5615 5613 5611 5610 5607 5605 5603 5600 5598 5597 5595 5593 5592
5606 5606 5607 5608 5608 5609 5608 5608 5608 5608 5608 5608 5608 5608 5608 5609 5609 5609 5609 5608 5607 5606 5605 5604 5603 5603 5603 5603 5601 5599 5597 5597 5595 5593 5591 5590 5587 5585 5583 5581 5580 5579 5579
5600 5600 5600 5600 5600 5599 5598 5598 5597 5596 5596 5595 5595 5595 5595 5595 5595 5594 5594 5593 5591 5589 5588 5587 5587 5586 5586 5585 5584 5581 5579 5578 5578 5579 5574 5573 5570 5568 5567 5566 5566 5565 5565
5593 5593 5592 5591 5590 5589 5588 5587 5586 5585 5584 5584 5583 5583 5583 5582 5581 5580 5579 5577 5575 5573 5572 5571 5570 5569 5568 5568 5566 5565 5562 5559 5559 5559 5556 5555 5554 5552 5552 5551 5551 5551 5552
5587 5586 5584 5583 5582 5581 5579 5577 5576 5574 5573 5572 5571 5571 5570 5569 5568 5566 5565 5563 5561 5559 5558 5556 5555 5554 5552 5550 5548 5546 5544 5543 5542 5540 5539 5538 5538 5537 5537 5537 5537 5537 5538
5581 5579 5577 5576 5574 5572 5570 5568 5566 5564 5562 5561 5560 5559 5558 5556 5555 5554 5552 5550 5549 5547 5545 5543 5541 5539 5537 5535 5533 5530 5528 5527 5527 5526 5525 5523 5523 5523 5523 5523 5523 5524 5525
5574 5572 5570 5568 5566 5564 5561 5559 5557 5554 5553 5551 5549 5547 5546 5544 5542 5540 5538 5536 5535 5534 5533 5531 5528 5526 5524 5521 5518 5516 5514 5512 5512 5513 5512 5510 5510 5509 5510 5510 5510 5511 5512